Date String (YYYY-MM-DD hh:mm:ss) UTC,Instrument flags,absolute air pressure of the measurement (hPa),sample flow rate (lpm),inlet stack bypass flow (lpm),air temperature of the measurement (°C),ambient temperature measured by the external sensor (°C),aerosol sample conditioner tube jacket temperature (°C),OPC LED temperature (°C),internal box temperature (°C),relative humidity of the measurement (%),span deviation,mass concentration of particles derived from Lorenz-Mie calculation of OPC scattering (μg/m³),mass concentration of particles derived from Lorenz-Mie calculation of OPC scattering (μg/m³),mass concentration of particles derived from Lorenz-Mie calculation of OPC scattering (μg/m³)
DateTimeUTC,F1_M11,P_M11,Q1_M11,Q2_M11,T1_M11,T2_M11,T3_M11,T4_M11,T5_M11,U1_M11,ZSPAN_M11,X0_M11,X2_M11,X1_M11
2023-12-07 07:00:00,SystemResetWarning,0824.2,5.00,000.00,024.4,023.3,000.0,032.9,025.6,6.3,0000.0,0000.49,0000.33,0000.28
2023-12-07 07:01:00,SystemResetWarning,0824.1,5.00,000.00,024.4,023.3,000.0,032.9,025.7,6.3,0000.0,0000.44,0000.32,0000.28
2023-12-07 07:02:00,SystemResetWarning,0824.1,5.01,000.00,024.4,023.3,000.0,032.9,025.7,6.4,0000.0,0000.42,0000.31,0000.28
2023-12-07 07:03:00,SystemResetWarning,0824.1,5.00,000.00,024.4,023.3,000.0,032.9,025.6,6.7,0000.0,0000.44,0000.31,0000.28
2023-12-07 07:04:00,SystemResetWarning,0824.2,5.00,000.00,024.4,023.3,000.0,032.9,025.6,6.8,0000.0,0000.46,0000.32,0000.28
2023-12-07 07:05:00,SystemResetWarning,0824.2,5.00,000.00,024.4,023.3,000.0,032.8,025.6,6.9,0000.0,0000.46,0000.32,0000.28
2023-12-07 07:06:00,SystemResetWarning,0824.2,5.00,000.00,024.4,023.2,000.0,032.8,025.6,6.6,0000.0,0000.49,0000.33,0000.28
2023-12-07 07:07:00,SystemResetWarning,0824.2,5.00,000.00,024.4,023.2,000.0,032.8,025.6,6.6,0000.0,0000.53,0000.32,0000.28
2023-12-07 07:08:00,SystemResetWarning,0824.1,5.00,000.00,024.4,023.2,000.0,032.8,025.6,6.5,0000.0,0000.52,0000.32,0000.28
2023-12-07 07:09:00,SystemResetWarning,0824.0,5.00,000.00,024.4,023.2,000.0,032.8,025.6,6.6,0000.0,0000.52,0000.31,0000.27
2023-12-07 07:10:00,SystemResetWarning,0824.0,5.00,000.00,024.3,023.2,000.0,032.8,025.6,6.6,0000.0,0000.54,0000.31,0000.26
2023-12-07 07:11:00,SystemResetWarning,0824.0,5.00,000.00,024.3,023.1,000.0,032.8,025.6,6.6,0000.0,0000.53,0000.31,0000.25
2023-12-07 07:12:00,SystemResetWarning,0824.0,5.00,000.00,024.3,023.1,000.0,032.8,025.5,6.5,0000.0,0000.54,0000.31,0000.25
2023-12-07 07:13:00,SystemResetWarning,0823.9,5.00,000.00,024.3,023.2,000.0,032.8,025.5,6.4,0000.0,0000.50,0000.29,0000.25
2023-12-07 07:14:00,SystemResetWarning,0824.0,5.00,000.00,024.3,023.1,000.0,032.8,025.6,6.4,0000.0,0000.47,0000.29,0000.25
2023-12-07 07:15:00,SystemResetWarning,0823.9,5.00,000.00,024.3,023.2,000.0,032.8,025.5,6.2,0000.0,0000.47,0000.29,0000.25
2023-12-07 07:16:00,SystemResetWarning,0823.9,4.99,000.00,024.3,023.2,000.0,032.7,025.5,6.3,0000.0,0000.48,0000.29,0000.25
2023-12-07 07:17:00,SystemResetWarning,0823.8,5.00,000.00,024.3,023.2,000.0,032.7,025.6,6.3,0000.0,0000.46,0000.28,0000.25
2023-12-07 07:18:00,SystemResetWarning,0823.8,5.00,000.00,024.3,023.2,000.0,032.7,025.6,6.3,0000.0,0000.35,0000.26,0000.24
2023-12-07 07:19:00,SystemResetWarning,0823.8,5.00,000.00,024.3,023.2,000.0,032.7,025.6,6.3,0000.0,0000.37,0000.27,0000.24
2023-12-07 07:20:00,SystemResetWarning,0823.8,5.00,000.00,024.3,023.2,000.0,032.7,025.6,6.3,0000.0,0000.37,0000.27,0000.24
2023-12-07 07:21:00,SystemResetWarning,0823.8,5.00,000.00,024.3,023.2,000.0,032.7,025.6,6.4,0000.0,0000.34,0000.27,0000.25
2023-12-07 07:22:00,SystemResetWarning,0823.8,5.00,000.00,024.3,023.2,000.0,032.7,025.6,6.4,0000.0,0000.40,0000.29,0000.25
2023-12-07 07:23:00,SystemResetWarning,0823.8,5.00,000.00,024.3,023.2,000.0,032.7,025.6,6.4,0000.0,0000.44,0000.30,0000.26
2023-12-07 07:24:00,SystemResetWarning,0823.8,5.01,000.00,024.3,023.2,000.0,032.7,025.6,6.3,0000.0,0000.52,0000.32,0000.26
2023-12-07 07:25:00,SystemResetWarning,0823.7,5.00,000.00,024.3,023.2,000.0,032.7,025.6,6.4,0000.0,0000.55,0000.33,0000.26
2023-12-07 07:26:00,SystemResetWarning,0823.6,5.00,000.00,024.3,023.2,000.0,032.7,025.6,6.4,0000.0,0000.55,0000.33,0000.25
2023-12-07 07:27:00,SystemResetWarning,0823.6,5.00,000.00,024.3,023.2,000.0,032.7,025.6,6.4,0000.0,0000.54,0000.32,0000.25
2023-12-07 07:28:00,SystemResetWarning,0823.6,5.00,000.00,024.3,023.2,000.0,032.7,025.5,6.3,0000.0,0000.98,0000.33,0000.25
2023-12-07 07:29:00,SystemResetWarning,0823.6,5.00,000.00,024.3,023.2,000.0,032.7,025.5,6.3,0000.0,0001.12,0000.33,0000.25
2023-12-07 07:30:00,SystemResetWarning,0823.6,5.00,000.00,024.3,023.3,000.0,032.7,025.5,6.3,0000.0,0001.11,0000.33,0000.25
2023-12-07 07:31:00,SystemResetWarning,0823.6,5.00,000.00,024.3,023.2,000.0,032.7,025.5,6.2,0000.0,0001.12,0000.33,0000.25
2023-12-07 07:32:00,SystemResetWarning,0823.5,5.00,000.00,024.3,023.2,000.0,032.7,025.5,6.4,0000.0,0001.17,0000.34,0000.25
2023-12-07 07:33:00,SystemResetWarning,0823.5,5.00,000.00,024.3,023.2,000.0,032.7,025.5,6.4,0000.0,0001.13,0000.33,0000.25
2023-12-07 07:34:00,SystemResetWarning,0823.5,5.00,000.00,024.2,023.2,000.0,032.7,025.5,6.1,0000.0,0001.06,0000.30,0000.24
2023-12-07 07:35:00,SystemResetWarning,0823.5,5.00,000.00,024.3,023.2,000.0,032.6,025.5,6.1,0000.0,0001.01,0000.29,0000.24
2023-12-07 07:36:00,SystemResetWarning,0823.5,5.00,000.00,024.3,023.2,000.0,032.7,025.5,6.1,0000.0,0000.95,0000.27,0000.24
2023-12-07 07:37:00,SystemResetWarning,0823.5,4.99,000.00,024.3,023.2,000.0,032.7,025.5,6.1,0000.0,0000.94,0000.27,0000.23
2023-12-07 07:38:00,SystemResetWarning,0823.4,5.00,000.00,024.3,023.3,000.0,032.6,025.5,5.9,0000.0,0000.97,0000.28,0000.23
2023-12-07 07:39:00,SystemResetWarning,0823.4,4.99,000.00,024.3,023.2,000.0,032.6,025.6,6.0,0000.0,0000.64,0000.27,0000.23
2023-12-07 07:40:00,SystemResetWarning,0823.4,4.99,000.00,024.3,023.2,000.0,032.6,025.5,6.0,0000.0,0000.45,0000.28,0000.23
2023-12-07 07:41:00,SystemResetWarning,0823.4,5.00,000.00,024.3,023.2,000.0,032.6,025.5,6.0,0000.0,0000.48,0000.30,0000.23
2023-12-07 07:42:00,SystemResetWarning,0823.4,5.00,000.00,024.3,023.3,000.0,032.6,025.5,6.0,0000.0,0000.49,0000.31,0000.23
2023-12-07 07:43:00,SystemResetWarning,0823.5,5.00,000.00,024.3,023.3,000.0,032.6,025.5,5.9,0000.0,0000.73,0000.30,0000.23
2023-12-07 07:44:00,SystemResetWarning,0823.4,5.00,000.00,024.3,023.3,000.0,032.6,025.5,5.9,0000.0,0001.80,0000.30,0000.22
2023-12-07 07:45:00,SystemResetWarning,0823.3,5.00,000.00,024.3,023.3,000.0,032.6,025.6,5.9,0000.0,0001.83,0000.31,0000.23
2023-12-07 07:46:00,SystemResetWarning,0823.3,5.00,000.00,024.3,023.3,000.0,032.6,025.5,5.9,0000.0,0001.85,0000.31,0000.22
2023-12-07 07:47:00,SystemResetWarning,0823.2,5.00,000.00,024.3,023.3,000.0,032.6,025.6,5.9,0000.0,0001.85,0000.31,0000.22
2023-12-07 07:48:00,SystemResetWarning,0823.1,5.00,000.00,024.3,023.3,000.0,032.6,025.6,5.9,0000.0,0001.83,0000.30,0000.22
2023-12-07 07:49:00,SystemResetWarning,0823.1,5.00,000.00,024.3,023.3,000.0,032.6,025.6,5.9,0000.0,0001.80,0000.29,0000.21
2023-12-07 07:50:00,SystemResetWarning,0823.0,5.00,000.00,024.3,023.3,000.0,032.6,025.6,5.9,0000.0,0001.79,0000.29,0000.22
2023-12-07 07:51:00,SystemResetWarning,0822.9,5.00,000.00,024.3,023.3,000.0,032.6,025.6,5.9,0000.0,0001.74,0000.27,0000.21
2023-12-07 07:52:00,SystemResetWarning,0823.0,5.00,000.00,024.3,023.3,000.0,032.6,025.6,5.8,0000.0,0001.70,0000.24,0000.20
2023-12-07 07:53:00,SystemResetWarning,0823.0,5.00,000.00,024.3,023.2,000.0,032.6,025.6,5.7,0000.0,0001.70,0000.24,0000.20
2023-12-07 07:54:00,SystemResetWarning,0823.0,5.00,000.00,024.3,023.2,000.0,032.6,025.6,5.8,0000.0,0001.50,0000.23,0000.20
2023-12-07 07:55:00,SystemResetWarning,0822.9,5.00,000.00,024.2,023.2,000.0,032.6,025.5,5.9,0000.0,0000.35,0000.24,0000.20
2023-12-07 07:56:00,SystemResetWarning,0823.0,5.00,000.00,024.2,023.2,000.0,032.6,025.6,6.0,0000.0,0000.36,0000.24,0000.20
2023-12-07 07:57:00,SystemResetWarning,0823.0,5.00,000.00,024.2,023.2,000.0,032.6,025.6,6.0,0000.0,0000.39,0000.26,0000.21
2023-12-07 07:58:00,SystemResetWarning,0823.0,5.00,000.00,024.2,023.2,000.0,032.6,025.5,6.1,0000.0,0000.40,0000.26,0000.22
2023-12-07 07:59:00,SystemResetWarning,0823.0,5.00,000.00,024.2,023.2,000.0,032.6,025.6,6.2,0000.0,0000.42,0000.27,0000.22
